Location: Izdebno
(52.6670°N, 16.2170°E)
Time: 17:15:58
(UTC+02:00)

Transit 4A - Pass Details

Date: 22 February 2024
Orbit: 871 x 972 km, 66.8° (Epoch: 21 April)

Event Time Altitude Azimuth Distance (km) Brightness Sun altitude
Rises 06:16:22 0° 294° (WNW) 3,562 - -7.1°
Exits shadow 06:18:09 - 302° (WNW) 3,010 10.0 -6.8°
Reaches altitude 10° 06:19:37 10° 310° (NW) 2,601 9.7 -6.6°
Maximum altitude 06:24:03 21° 358° (N) 1,919 9.5 -5.9°
Drops below altitude 10° 06:28:26 10° 46° (NE) 2,556 10.8 -5.3°
Sets 06:31:35 0° 63° (ENE) 3,483 11.8 -4.8°
